Flag for Turkey Weather past 2 weeks in Istanbul, Turkey

Now
68 °F

Sunny.


Feels Like: 68 °F
Forecast: 64 / 73 °F
Wind: 7 mph from Southwest

Location: Istanbul Ataturk Airport

Current Time: Oct 22, 2014 at 7:35:15 PM

Latest Report: Oct 22, 2014 at 6:50 PM


Visibility: 10 mi

Pressure: 29.74 "Hg

Humidity: 60%

Dew point: 54 °F

Location of IstanbulLocation

Historic Weather in Istanbul — Graph

°F

Istanbul temperature yesterday

Maximum temperature yesterday: 66 °F (at 3:20 PM)
Minimum temperature yesterday: 57 °F (at 12:20 AM)
Average temperature yesterday: 61 °F

Past Weeks' High & Low Weather Summary

 TemperatureHumidityPressure
High75 °F (Oct 7, 6:20 PM)94% (Oct 13, 6:50 AM)30.36 "Hg (Oct 13, 6:50 AM)
Low48 °F (Oct 20, 6:20 AM)45% (Oct 19, 1:50 PM)29.74 "Hg (Oct 22, 5:20 PM)
Average64 °F71%30.06 "Hg
* Reported Oct 7 6:20 PM — Oct 22 6:20 PM, Istanbul, Weather by CustomWeather, © 2014

Note: Actual official high and low records may vary slightly from our data, if they occured in-between our weather recording intervals... More about our weather records

Advertising

Istanbul weather history for previous 24 hours

 ConditionsComfort  
Time TempWeatherWind HumidityBarometerVisibility
6:20 PM
Oct 22
70 °FPassing clouds.10 mph53%29.74 "HgN/A
5:50 PM68 °FPassing clouds.7 mph56%29.74 "HgN/A
5:20 PM70 °FSunny.8 mph50%29.74 "Hg10 mi
4:50 PM68 °FPassing clouds.8 mph60%29.77 "HgN/A
4:20 PM70 °FSunny.9 mph60%29.77 "Hg10 mi
3:50 PM72 °FSunny.14 mph53%29.77 "Hg10 mi
3:20 PM72 °FSunny.14 mph53%29.77 "Hg10 mi
2:50 PM72 °FPassing clouds.12 mph47%29.77 "HgN/A
2:20 PM72 °FSunny.13 mph50%29.80 "Hg10 mi
1:50 PM70 °FSunny.12 mph50%29.80 "Hg10 mi
1:20 PM70 °FSunny.12 mph53%29.83 "Hg10 mi
12:50 PM68 °FSunny.10 mph60%29.83 "Hg10 mi
12:20 PM68 °FSunny.13 mph56%29.86 "Hg10 mi
11:50 AM68 °FSunny.15 mph53%29.86 "Hg10 mi
11:20 AM66 °FSunny.14 mph64%29.86 "Hg10 mi
10:50 AM66 °FSunny.12 mph68%29.86 "Hg10 mi
10:20 AM68 °FSunny.13 mph56%29.86 "Hg10 mi
9:50 AM66 °FSunny.10 mph56%29.83 "Hg10 mi
9:20 AM66 °FPassing clouds.8 mph64%29.83 "HgN/A
8:50 AM64 °FPassing clouds.5 mph68%29.83 "HgN/A
8:20 AM63 °FPassing clouds.3 mph73%29.83 "HgN/A
7:50 AM63 °FPassing clouds.3 mph73%29.83 "HgN/A
7:20 AM63 °FPassing clouds.7 mph73%29.83 "HgN/A
6:50 AM61 °FClear.7 mph72%29.83 "Hg10 mi
6:20 AM59 °FClear.3 mph77%29.83 "Hg10 mi
5:50 AM61 °FClear.2 mph77%29.83 "Hg10 mi
5:20 AM63 °FClear.6 mph68%29.83 "Hg10 mi
4:50 AM64 °FClear.12 mph56%29.83 "Hg4 mi
4:20 AM63 °FClear.3 mph73%29.83 "Hg10 mi
3:50 AM63 °FClear.6 mph77%29.83 "Hg4 mi
3:20 AM63 °FPassing clouds.6 mph77%29.83 "HgN/A
2:50 AM63 °FPassing clouds.6 mph73%29.83 "HgN/A
2:20 AM63 °FClear.6 mph73%29.86 "Hg10 mi
1:50 AM63 °FPassing clouds.7 mph73%29.86 "HgN/A
1:20 AM63 °FPassing clouds.9 mph77%29.86 "HgN/A
12:50 AM59 °FClear.2 mph82%29.86 "Hg10 mi
12:20 AM59 °FClear.1 mph82%29.86 "Hg10 mi
11:50 PM
Oct 21
61 °FClear.2 mph72%29.86 "Hg10 mi
11:20 PM61 °FPassing clouds.5 mph77%29.86 "HgN/A
10:50 PM61 °FClear.5 mph72%29.86 "Hg10 mi
10:20 PM61 °FPassing clouds.5 mph72%29.86 "HgN/A
9:50 PM61 °FPassing clouds.5 mph72%29.86 "HgN/A
9:20 PM61 °FClear.2 mph72%29.86 "Hg10 mi
8:50 PM61 °FClear.5 mph72%29.86 "Hg10 mi
8:20 PM59 °FPassing clouds.5 mph72%29.86 "HgN/A
7:50 PM61 °FClear.5 mph68%29.89 "Hg10 mi
7:20 PM61 °FClear.5 mph63%29.89 "Hg10 mi
Weather by CustomWeather, © 2014

See weather overviewHow to use our weather pages